Regional Weather Roundup
Issued by NWS

Home | Current Version | Previous Version | Graphics & Text | Print | Product List | Glossary On
Versions: 1 2 3 4 5 6 7 8 9 10 11 12 13 14 15 16 17 18 19 20 21 22 23 24 25 26 27 28 29 30 31 32 33 34 35 36 37 38 39 40 41 42 43 44 45 46 47 48 49 50
000
ASUS45 KTFX 011010
RWRMT
MONTANA REGIONAL WEATHER ROUNDUP
NATIONAL WEATHER SERVICE GREAT FALLS MT
400 AM MDT TUE SEP 01 2015

NOTE: "FAIR" INDICATES FEW OR NO CLOUDS BELOW 12000 FEET WITH NO
SIGNIFICANT WEATHER AND/OR OBSTRUCTIONS TO VISIBILITY.

MTZ001>007-043-011100-
WEST OF THE DIVIDE

CITY           SKY/WX    TMP DP  RH WIND       PRES   REMARKS
KALISPELL      PTSUNNY   49  41  74 W5        29.88S
MISSOULA         N/A     47  41  80 CALM      29.95R
BUTTE            N/A     42  36  79 SE6       30.02R
MULLAN PASS      N/A     45  40  82 VRB7      29.99S
DEER LODGE       N/A     43  36  75 CALM      30.01S
EUREKA           N/A     61  43  51 SE12      29.85R
HAMILTON         N/A     55  41  58 S6        29.94S
LIBBY            N/A     52  45  76 CALM      29.85S
$$

MTZ008-052>055-011100-
SOUTHWEST MONTANA

CITY           SKY/WX    TMP DP  RH WIND       PRES   REMARKS
BOZEMAN          N/A     49  38  65 S6        29.95R
DILLON           N/A     53  32  44 SW7       29.98R
W YELLOWSTONE  CLEAR     32  25  74 CALM      30.12R
$$

MTZ009-010-012-014-046-048-049-054-011100-
EAST SLOPES AND CENTRAL MONTANA

CITY           SKY/WX    TMP DP  RH WIND       PRES   REMARKS
CUT BANK         N/A     57  36  45 SW10      29.79S
GREAT FALLS      N/A     62  39  42 S14       29.83F
MALMSTROM AFB    N/A     60  40  47 SW10      29.83F
HELENA           N/A     56  39  53 CALM      29.91S
CONRAD           N/A     57  43  59 S5        29.84S
$$

MTZ011-013-016-021-045-047-050-051-011100-
NORTH CENTRAL MONTANA

CITY           SKY/WX    TMP DP  RH WIND       PRES   REMARKS
HAVRE            N/A     50  40  68 CALM      29.76F
LEWISTOWN        N/A     47  39  74 CALM      29.89R
N BAR RANCH      N/A     50  37  62 NW9       29.91S
CHINOOK          N/A     50  39  66 SE3       29.77F
$$

MTZ017>020-022>027-061-062-011100-
NORTHEAST MONTANA

CITY           SKY/WX    TMP DP  RH WIND       PRES   REMARKS
GLASGOW        CLEAR     53  44  71 E9        29.80S
JORDAN           N/A     45  34  65 W3        29.82F
SIDNEY         CLEAR     50  41  71 CALM      29.83S
WOLF POINT     CLEAR     47  41  80 N3        29.81S
MALTA            N/A     46  40  79 CALM      29.77F
PLENTYWOOD       N/A     57  39  51 E3        29.82S
POPLAR           N/A     52  39  62 CALM      29.82F
$$

MTZ028>42-056>058-011100-
SOUTHCENTRAL AND SOUTHEAST MONTANA

CITY           SKY/WX    TMP DP  RH WIND       PRES   REMARKS
BAKER          CLEAR     59  53  80 SE8       29.88S
BILLINGS       CLEAR     58  37  45 SW8       29.87S
LIVINGSTON     CLEAR     53  34  48 NW13G26   29.93R
MILES CITY     CLEAR     57  47  69 SE7       29.83S
EKALAKA          N/A     60  53  77 SE9       29.89R
FORSYTH          N/A     57  39  51 E5        29.82S
LAUREL           N/A     52  35  52 W2        29.87S
$$

REGIONAL REPORTS...DAKOTAS

CITY           SKY/WX    TMP DP  RH WIND       PRES   REMARKS
WILLISTON      CLEAR     50  44  80 CALM      29.83F
MINOT          CLEAR     57  47  69 S3        29.83S
DICKINSON      CLEAR     55  47  74 S10       29.86S
CROSBY           N/A     54  45  71 S10       29.83R
BISMARCK       CLEAR     54  51  90 E8        29.87F
GRAND FORKS    PTCLDY    50  48  93 S5        29.85S
FARGO            N/A     58  57  97 CALM      29.88R
BUFFALO SD       N/A     58  54  86 S6        29.85S
RAPID CITY     CLEAR     55  54  96 CALM      29.90R
$$

REGIONAL REPORTS...WYOMING/IDAHO/WASHINGTON

CITY           SKY/WX    TMP DP  RH WIND       PRES   REMARKS
GILLETTE       CLEAR     53  47  79 CALM      29.93S
SHERIDAN       CLEAR     49  41  74 S7        29.91S
BUFFALO WY     CLEAR     59  37  44 SW8       29.97S
CODY           CLEAR     54  27  35 CALM      29.98R
YELLOWSTONE LA   N/A     33  29  85 CALM      30.20F
IDAHO FALLS    CLEAR     50  39  66 NE5       30.02R
SALMON           N/A     46  36  66 CALM      29.97R
BOISE            N/A     60  39  45 CALM      29.90S
SPOKANE          N/A     54  45  71 S8        29.89R
$$

REGIONAL REPORTS...ALBERTA

CITY           SKY/WX    TMP DP  RH WIND       PRES   REMARKS
EDMONTON       CLEAR     48  39  71 SE5       29.48F
CALGARY        PTCLDY    52  37  58 S3        29.62F
LETHBRIDGE     PTCLDY    52  39  62 S5        29.72R
MEDICINE HAT   PTCLDY    57  43  58 SW14G20   29.68F
WATERTON GATE    N/A     57  34  41 SW28G45     N/A
CARDSTON         N/A     59  34  38 SW10G17     N/A
MILK RIVER       N/A     54  39  58 W8          N/A
ONEFOUR          N/A     57  36  44 S1          N/A
$$

REGIONAL REPORTS...SASKATCHEWAN

CITY           SKY/WX    TMP DP  RH WIND       PRES   REMARKS
SWIFT CURRENT  CLEAR     54  39  58 S13       29.73S
REGINA         PTCLDY    48  45  87 S9        29.76R
SASKATOON      MOCLDY    50  45  81 S7        29.66S
CYPRESS HILLS    N/A     50  34  53 SW10        N/A
VAL MARIE        N/A     41  37  87 NW3         N/A
ROCKGLEN         N/A     54  41  62 S6          N/A
$$



USA.gov is the U.S. government's official web portal to all federal, state and local government web resources and services.